Погода в Лесной

Россия / Забайкальский край     51°46′13″N   113°00′33″E
темп.,
°C
ветер,
м/с
пор.,
м/с
влажн.,
%
обл.,
%
осадки,
мм/ч
давл.,
гПа
погр.,
м
27 февраля, сб
сб2700:00−12ссз1197100 0.8 101337
03:00−13зсз1295100 1.1 101243
06:00−13з21090100 0.1 1015609
09:00−17зсз3138481 0.1 1018696
12:00−14зсз71375100 0.0 1020795
15:00−13зсз8137197 0.0 10221097
18:00−15зсз6116976 0.0 10271355
21:00−20зсз3127953 0.0 1032372
28 февраля, вс
вс2800:00−24з34810 0.0 103681
03:00−25з27810 0.0 1039158
06:00−28зюз12860 0.0 103927
09:00−28зюз22900 0.0 104131
12:00−19зсз49670 0.0 10391018
15:00−16зсз510590 0.0 10361429
18:00−17сз48670 0.0 10371151
21:00−24з12816 0.0 104120
1 марта, пн
пн100:00−26юз12860 0.0 104220
03:00−27ююз22910 0.0 104221
06:00−28ююз129521 0.0 104120
09:00−28ю119314 0.0 104021
12:00−19ю117945 0.0 1034264
15:00−15ююв127351 0.0 1030444
18:00−16ю128576 0.0 1027145
21:00−22ю128960 0.0 102820
2 марта, вт
вт200:00−24ю119410 0.0 102720
03:00−25ю119829 0.0 102520
06:00−23юв1197100 0.0 102320
09:00−24в019799 0.0 102120
12:00−16ю1281100 0.0 1016303
15:00−12ю237799 0.0 1011340
18:00−12ююв129072 0.0 1009118
21:00−14ююз119086 0.0 101120
3 марта, ср
ср300:00−14юз1288100 0.0 101121
03:00−16зюз129198 0.0 101128
06:00−17юз229391 0.0 101240
09:00−16юз239396 0.0 101170
12:00−9зсз51169100 0.0 10081407
15:00−8зсз61167100 0.1 10071806
18:00−10сз3876100 0.1 10081095
21:00−14ссз1294100 0.1 101220